TimeEDT,TemperatureF,Dew PointF,Humidity,Sea Level PressureIn,VisibilityMPH,Wind Direction,Wind SpeedMPH,Gust SpeedMPH,PrecipitationIn,Events,Conditions,WindDirDegrees,DateUTC
12:52 AM,43.0,41.0,93,30.16,10.0,Calm,Calm,-,N/A,,Clear,0,2013-09-09 04:52:00
1:52 AM,41.0,39.0,93,30.16,10.0,Calm,Calm,-,N/A,,Clear,0,2013-09-09 05:52:00
2:52 AM,41.0,39.0,93,30.17,10.0,Calm,Calm,-,N/A,,Clear,0,2013-09-09 06:52:00
3:52 AM,39.9,37.0,89,30.18,10.0,Calm,Calm,-,N/A,,Clear,0,2013-09-09 07:52:00
4:52 AM,37.9,36.0,93,30.21,10.0,Calm,Calm,-,N/A,,Clear,0,2013-09-09 08:52:00
5:52 AM,37.9,36.0,93,30.23,10.0,Calm,Calm,-,N/A,,Clear,0,2013-09-09 09:52:00
6:06 AM,37.4,35.6,93,30.23,10.0,Calm,Calm,-,N/A,,Partly Cloudy,0,2013-09-09 10:06:00
6:36 AM,39.2,37.4,93,30.24,10.0,Calm,Calm,-,N/A,,Mostly Cloudy,0,2013-09-09 10:36:00
6:47 AM,39.2,37.4,93,30.24,10.0,Calm,Calm,-,N/A,,Scattered Clouds,0,2013-09-09 10:47:00
6:52 AM,39.9,37.9,93,30.25,10.0,Calm,Calm,-,N/A,,Scattered Clouds,0,2013-09-09 10:52:00
7:52 AM,44.1,39.9,85,30.27,10.0,Calm,Calm,-,N/A,,Clear,0,2013-09-09 11:52:00
8:52 AM,48.0,39.9,74,30.26,10.0,Calm,Calm,-,N/A,,Clear,0,2013-09-09 12:52:00
9:52 AM,53.1,41.0,64,30.26,10.0,Calm,Calm,-,N/A,,Clear,0,2013-09-09 13:52:00
10:52 AM,59.0,39.0,48,30.24,10.0,Calm,Calm,-,N/A,,Clear,0,2013-09-09 14:52:00
11:52 AM,61.0,37.9,42,30.22,10.0,Calm,Calm,-,N/A,,Clear,0,2013-09-09 15:52:00
12:52 PM,64.9,39.9,40,30.20,10.0,East,4.6,-,N/A,,Clear,100,2013-09-09 16:52:00
1:52 PM,64.9,39.9,40,30.19,10.0,Calm,Calm,-,N/A,,Clear,0,2013-09-09 17:52:00
2:52 PM,68.0,41.0,37,30.18,10.0,Calm,Calm,-,N/A,,Clear,0,2013-09-09 18:52:00
3:52 PM,68.0,41.0,37,30.17,10.0,South,3.5,-,N/A,,Clear,190,2013-09-09 19:52:00
4:52 PM,68.0,42.1,39,30.15,10.0,SSE,3.5,-,N/A,,Clear,160,2013-09-09 20:52:00
5:52 PM,66.0,43.0,43,30.14,10.0,Calm,Calm,-,N/A,,Clear,0,2013-09-09 21:52:00
6:52 PM,60.1,48.0,64,30.14,10.0,Calm,Calm,-,N/A,,Clear,0,2013-09-09 22:52:00
7:52 PM,57.9,46.9,67,30.14,10.0,Calm,Calm,-,N/A,,Clear,0,2013-09-09 23:52:00
8:52 PM,57.0,48.0,72,30.14,10.0,East,3.5,-,N/A,,Clear,90,2013-09-10 00:52:00
9:52 PM,55.9,48.0,75,30.14,10.0,Calm,Calm,-,N/A,,Clear,0,2013-09-10 01:52:00
10:52 PM,55.9,48.0,75,30.14,10.0,Variable,6.9,-,N/A,,Clear,0,2013-09-10 02:52:00
11:52 PM,55.9,48.9,77,30.13,10.0,Calm,Calm,-,N/A,,Scattered Clouds,0,2013-09-10 03:52:00